Meteo orario Alimkina

Oggi, 28 Ottobre, Mercoledi

Tempo Temperatura Precipitazioni Vento Pressione Umidità
00:00 +5°C° 0 mm 4 m/s 749 mm Hg 82%
01:00 +4°C° 0 mm 4 m/s 749 mm Hg 82%
02:00 +4°C° 0 mm 3 m/s 749 mm Hg 83%
03:00 +3°C° 0 mm 4 m/s 749 mm Hg 84%
04:00 +3°C° 0 mm 4 m/s 749 mm Hg 85%
05:00 +3°C° 0 mm 4 m/s 748 mm Hg 85%
06:00 +3°C° 0 mm 4 m/s 749 mm Hg 83%
07:00 +2°C° 0 mm 5 m/s 749 mm Hg 82%
08:00 +2°C° 0 mm 5 m/s 749 mm Hg 80%
09:00 +3°C° 0 mm 5 m/s 749 mm Hg 76%
10:00 +5°C° 0 mm 5 m/s 749 mm Hg 72%
11:00 +7°C° 0 mm 5 m/s 749 mm Hg 68%
12:00 +7°C° 0 mm 4 m/s 748 mm Hg 68%
13:00 +7°C° 0 mm 4 m/s 748 mm Hg 68%
14:00 +8°C° 0 mm 4 m/s 748 mm Hg 68%
15:00 +7°C° 0 mm 4 m/s 748 mm Hg 72%
16:00 +7°C° 0 mm 3 m/s 748 mm Hg 76%
17:00 +5°C° 0 mm 3 m/s 748 mm Hg 80%
18:00 +5°C° 0 mm 3 m/s 748 mm Hg 80%
19:00 +4°C° 0 mm 3 m/s 748 mm Hg 79%
20:00 +4°C° 0 mm 3 m/s 748 mm Hg 79%
21:00 +4°C° 0 mm 3 m/s 748 mm Hg 80%
22:00 +4°C° 0 mm 3 m/s 748 mm Hg 81%
23:00 +3°C° 0 mm 3 m/s 748 mm Hg 81%

Domani, 29 Ottobre, Giovedi

Tempo Temperatura Precipitazioni Vento Pressione Umidità
00:00 +3°C° 0 mm 3 m/s 748 mm Hg 82%
01:00 +3°C° 0 mm 3 m/s 748 mm Hg 83%
02:00 +4°C° 0 mm 2 m/s 748 mm Hg 83%
03:00 +3°C° 0 mm 2 m/s 747 mm Hg 83%
04:00 +3°C° 0 mm 2 m/s 747 mm Hg 82%
05:00 +3°C° 0 mm 2 m/s 747 mm Hg 81%
06:00 +2°C° 0 mm 3 m/s 747 mm Hg 79%
07:00 +3°C° 0 mm 3 m/s 747 mm Hg 77%
08:00 +3°C° 0 mm 4 m/s 747 mm Hg 76%
09:00 +4°C° 0 mm 4 m/s 747 mm Hg 73%
10:00 +5°C° 0 mm 4 m/s 746 mm Hg 70%
11:00 +7°C° 0 mm 4 m/s 746 mm Hg 67%
12:00 +7°C° 0 mm 4 m/s 746 mm Hg 65%
13:00 +7°C° 0 mm 4 m/s 745 mm Hg 63%
14:00 +9°C° 0 mm 3 m/s 745 mm Hg 61%
15:00 +8°C° 0 mm 3 m/s 745 mm Hg 65%
16:00 +5°C° 0 mm 3 m/s 744 mm Hg 68%
17:00 +4°C° 0 mm 3 m/s 744 mm Hg 72%
18:00 +4°C° 0 mm 3 m/s 744 mm Hg 73%
19:00 +4°C° 0 mm 3 m/s 744 mm Hg 74%
20:00 +3°C° 0 mm 3 m/s 744 mm Hg 75%
21:00 +3°C° 0 mm 3 m/s 744 mm Hg 77%
22:00 +4°C° 0 mm 2 m/s 743 mm Hg 80%
23:00 +3°C° 0 mm 2 m/s 743 mm Hg 82%

Dopodomani, 30 Ottobre, Venerdi

Tempo Temperatura Precipitazioni Vento Pressione Umidità
00:00 +4°C° 0 mm 2 m/s 743 mm Hg 83%
01:00 +4°C° 0 mm 2 m/s 742 mm Hg 83%
02:00 +4°C° 0 mm 2 m/s 742 mm Hg 84%
03:00 +4°C° 0 mm 2 m/s 742 mm Hg 84%
04:00 +4°C° 0 mm 2 m/s 742 mm Hg 83%
05:00 +4°C° 0 mm 2 m/s 742 mm Hg 83%
06:00 +6°C° 0 mm 1 m/s 742 mm Hg 81%
07:00 +6°C° 0 mm 1 m/s 742 mm Hg 79%
08:00 +7°C° 0 mm 1 m/s 742 mm Hg 77%
09:00 +8°C° 0 mm 1 m/s 742 mm Hg 75%
10:00 +8°C° 0 mm 1 m/s 741 mm Hg 72%
11:00 +9°C° 0 mm 1 m/s 741 mm Hg 69%
12:00 +9°C° 0 mm 1 m/s 741 mm Hg 69%
13:00 +10°C° 0 mm 1 m/s 741 mm Hg 69%
14:00 +10°C° 0 mm 1 m/s 741 mm Hg 69%
15:00 +9°C° 0 mm 1 m/s 741 mm Hg 74%
16:00 +8°C° 0 mm 1 m/s 741 mm Hg 79%
17:00 +7°C° 0 mm 1 m/s 741 mm Hg 84%
18:00 +7°C° 0 mm 1 m/s 741 mm Hg 85%
19:00 +7°C° 0 mm 1 m/s 741 mm Hg 85%
20:00 +7°C° 0 mm 1 m/s 741 mm Hg 86%
21:00 +7°C° 0 mm 1 m/s 740 mm Hg 87%
22:00 +5°C° 0 mm 0 m/s 740 mm Hg 87%
23:00 +5°C° 0 mm 0 m/s 740 mm Hg 88%

31 Ottobre, Sabato

Tempo Temperatura Precipitazioni Vento Pressione Umidità
00:00 +5°C° 0 mm 0 m/s 740 mm Hg 87%
01:00 +7°C° 0 mm 1 m/s 740 mm Hg 87%
02:00 +7°C° 0 mm 1 m/s 740 mm Hg 86%
03:00 +6°C° 0 mm 1 m/s 741 mm Hg 87%
04:00 +6°C° 0 mm 1 m/s 741 mm Hg 89%
05:00 +6°C° 0 mm 1 m/s 741 mm Hg 90%
06:00 +6°C° 0 mm 1 m/s 741 mm Hg 89%
07:00 +6°C° 0 mm 1 m/s 742 mm Hg 89%
08:00 +6°C° 0 mm 1 m/s 742 mm Hg 88%
09:00 +7°C° 0 mm 2 m/s 742 mm Hg 84%
10:00 +8°C° 0 mm 2 m/s 743 mm Hg 80%
11:00 +9°C° 0 mm 2 m/s 743 mm Hg 76%
12:00 +9°C° 0 mm 2 m/s 743 mm Hg 75%
13:00 +9°C° 0 mm 2 m/s 743 mm Hg 75%
14:00 +9°C° 0 mm 2 m/s 744 mm Hg 75%
15:00 +8°C° 0 mm 2 m/s 744 mm Hg 78%
16:00 +8°C° 0 mm 2 m/s 744 mm Hg 82%
17:00 +7°C° 0 mm 2 m/s 745 mm Hg 85%
18:00 +7°C° 0 mm 2 m/s 745 mm Hg 86%
19:00 +6°C° 0 mm 2 m/s 745 mm Hg 87%
20:00 +6°C° 0 mm 2 m/s 746 mm Hg 88%
21:00 +6°C° 0 mm 2 m/s 746 mm Hg 89%
22:00 +5°C° 0 mm 2 m/s 746 mm Hg 91%
23:00 +5°C° 0 mm 2 m/s 746 mm Hg 92%

1 Novenbre, Domenica

Tempo Temperatura Precipitazioni Vento Pressione Umidità
00:00 +5°C° 0 mm 2 m/s 746 mm Hg 92%
01:00 +5°C° 0 mm 2 m/s 746 mm Hg 92%
02:00 +5°C° 0 mm 2 m/s 747 mm Hg 92%
03:00 +4°C° 0 mm 3 m/s 747 mm Hg 91%
04:00 +4°C° 0 mm 3 m/s 747 mm Hg 91%
05:00 +5°C° 0 mm 3 m/s 747 mm Hg 90%
06:00 +5°C° 0 mm 3 m/s 747 mm Hg 87%
07:00 +5°C° 0 mm 4 m/s 747 mm Hg 84%
08:00 +5°C° 0 mm 4 m/s 748 mm Hg 81%
09:00 +5°C° 0 mm 4 m/s 748 mm Hg 79%
10:00 +6°C° 0 mm 4 m/s 748 mm Hg 77%
11:00 +7°C° 0 mm 4 m/s 748 mm Hg 74%
12:00 +7°C° 0 mm 4 m/s 748 mm Hg 74%
13:00 +7°C° 0 mm 4 m/s 748 mm Hg 74%
14:00 +7°C° 0 mm 4 m/s 748 mm Hg 73%
15:00 +6°C° 0 mm 4 m/s 748 mm Hg 76%
16:00 +5°C° 0 mm 4 m/s 749 mm Hg 79%
17:00 +5°C° 0 mm 3 m/s 749 mm Hg 82%
18:00 +4°C° 0 mm 3 m/s 749 mm Hg 82%
19:00 +4°C° 0 mm 4 m/s 749 mm Hg 82%
20:00 +4°C° 0 mm 4 m/s 750 mm Hg 82%
21:00 +4°C° 0 mm 4 m/s 750 mm Hg 83%
22:00 +3°C° 0 mm 3 m/s 750 mm Hg 85%
23:00 +3°C° 0 mm 3 m/s 750 mm Hg 86%

2 Novenbre, Lunedi

Tempo Temperatura Precipitazioni Vento Pressione Umidità
00:00 +3°C° 0 mm 3 m/s 750 mm Hg 88%
01:00 +2°C° 0 mm 3 m/s 750 mm Hg 90%
02:00 +3°C° 0 mm 2 m/s 750 mm Hg 92%
03:00 +2°C° 0 mm 3 m/s 750 mm Hg 91%
04:00 +3°C° 0 mm 3 m/s 750 mm Hg 90%
05:00 +3°C° 0 mm 3 m/s 750 mm Hg 88%
06:00 +3°C° 0 mm 3 m/s 751 mm Hg 88%
07:00 +3°C° 0 mm 3 m/s 751 mm Hg 88%
08:00 +3°C° 0 mm 3 m/s 751 mm Hg 88%
09:00 +4°C° 0 mm 3 m/s 751 mm Hg 85%
10:00 +6°C° 0 mm 2 m/s 751 mm Hg 82%
11:00 +7°C° 0 mm 2 m/s 751 mm Hg 79%
12:00 +8°C° 0 mm 2 m/s 751 mm Hg 79%
13:00 +8°C° 0 mm 2 m/s 751 mm Hg 79%
14:00 +9°C° 0 mm 1 m/s 751 mm Hg 80%
15:00 +8°C° 0 mm 1 m/s 751 mm Hg 83%
16:00 +8°C° 0 mm 1 m/s 751 mm Hg 86%
17:00 +7°C° 0 mm 1 m/s 751 mm Hg 89%
18:00 +7°C° 0 mm 1 m/s 752 mm Hg 90%
19:00 +7°C° 0 mm 1 m/s 752 mm Hg 91%
20:00 +7°C° 0 mm 1 m/s 752 mm Hg 91%
21:00 +6°C° 0 mm 2 m/s 752 mm Hg 92%
22:00 +6°C° 0 mm 2 m/s 752 mm Hg 93%
23:00 +6°C° 0 mm 2 m/s 752 mm Hg 94%
Mostrare altro

Abbiamo bisogno del tuo consenso

Meteoprog e i nostri fornitori di servizi possono memorizzare e accedere a dati personali come cookie, identificatori di dispositivi o altre tecnologie simili sul tuo dispositivo e possono elaborare tali dati per personalizzare i contenuti e gli annunci, nonché fornire funzionalità dei social media e analizzarne il traffico.

  • Archiviare e/o accedere alle informazioni sul tuo dispositivo

    Cookie, identificatori di dispositivi o altre informazioni possono essere memorizzati o resi accessibili sul tuo dispositivo per le finalità sopra indicate.

  • Annunci e contenuti personalizzati, misurazione di annunci e contenuti, approfondimenti sul pubblico e sviluppo di prodotti

    Gli annunci e i contenuti possono essere personalizzati in base a un profilo. È possibile aggiungere più dati per personalizzare meglio annunci e contenuti. È possibile misurare il rendimento degli annunci e dei contenuti. È possibile ricavare informazioni sul pubblico che ha visto gli annunci e i contenuti. Tali dati possono essere utilizzati per sviluppare o migliorare l'esperienza, i sistemi e il software dell'utente.

Cliccando su “Accetto”, acconsenti all'uso di cookie, identificatori di dispositivo, web beacon o altre tecnologie simili. Puoi modificare le impostazioni nel browser del tuo dispositivo.

Per determinati scopi, è possibile fare affidamento su interessi legali, piuttosto che sul consenso. Puoi approfondire questo argomento consultando la nostra Informativa sulla privacy e sui cookie.